Regional Weather Roundup
Issued by NWS

Home | Current Version | Previous Version | Graphics & Text | Print | Product List | Glossary On
Versions: 1 2 3 4 5 6 7 8 9 10 11 12 13 14 15 16 17 18 19 20 21 22 23 24 25 26 27 28 29 30 31 32 33 34 35 36 37 38 39 40 41 42 43 44 45 46 47 48 49 50
000
ASUS43 KFSD 152302
RWRSD

WEATHER ROUNDUP FOR SOUTH DAKOTA
NATIONAL WEATHER SERVICE SIOUX FALLS SD
600 PM CDT TUE AUG 15 2017

NOTE: "FAIR" INDICATES FEW OR NO CLOUDS BELOW 12,000 FEET WITH NO
SIGNIFICANT WEATHER AND/OR OBSTRUCTIONS TO VISIBILITY.


SDZ001>005-009-010-012>017-160000-
NORTHWEST AND NORTH CENTRAL SOUTH DAKOTA

CITY           SKY/WX    TMP DP  RH WIND       PRES   REMARKS
BUFFALO          N/A     67  61  81 NW13      29.83R
FAITH            N/A     73  63  70 NW10      29.83S
MOBRIDGE       HVY RAIN  71  68  90 E8        29.76F FOG
$$

SDZ012>016-024>037-041>051-057-063-072>074-160000-
SOUTHWEST AND SOUTH CENTRAL SOUTH DAKOTA

CITY           SKY/WX    TMP DP  RH WIND       PRES   REMARKS
RAPID CTY ARPT LGT RAIN  70  58  65 N15       29.87S
PIERRE         MOSUNNY   78  65  63 SE17      29.76F
CUSTER         CLOUDY    68  51  54 VRB5      29.97S
ELLSWORTH AFB  CLOUDY    71  61  69 N13       29.87R
PHILIP         CLOUDY    81  64  56 SE8G16    29.77S
PINE RIDGE     MOSUNNY   85  55  35 NW7       29.81F
SPEARFISH      FAIR      68  57  68 NW9       29.93S
WINNER         FAIR      77  66  68 E16       29.78F
$$

SDZ004>011-016>023-039-040-160000-
NORTHEAST SOUTH DAKOTA

CITY           SKY/WX    TMP DP  RH WIND       PRES   REMARKS
ABERDEEN       CLOUDY    72  65  78 SE6       29.84F
WATERTOWN      CLOUDY    70  62  76 SE8G18    29.88F
BROOKINGS      CLOUDY    69  62  78 SE10      29.90F
SISSETON         N/A     71  63  75 SE10      29.88S
$$

SDZ017-020-022-023-036>040-048>070-160000-
SOUTHEAST SOUTH DAKOTA

CITY           SKY/WX    TMP DP  RH WIND       PRES   REMARKS
SIOUX FALLS    LGT RAIN  68  67  96 E8        29.86F
HURON          CLOUDY    73  64  73 SE16G23   29.83F
CHAMBERLAIN    CLOUDY    74  68  80 E15       29.79F
MITCHELL       CLOUDY    70  67  90 SE13      29.84F
YANKTON        LGT RAIN  67  65  93 SE3       29.83F
$$

ABBREVIATIONS USED IN REMARKS
   TC - TEMPERATURE IN CELSIUS
  WCI - WIND CHILL INDEX
   HX - HEAT INDEX
  VSB - VISIBILITY





USA.gov is the U.S. government's official web portal to all federal, state and local government web resources and services.